Jackson, WY

1:57 PM MST on December 06, 2019 (GMT -0700)
Jackson Hole

Weather History for KJAC - October, 2019

Change the Weather History Date:

Monday, October 28, 2019

  Actual Average Record
Temperature  
Mean Temperature 11 °F -  
Max Temperature 21 °F 50 °F 66 °F (1968)
Min Temperature 1 °F 17 °F 1 °F (1970)
Degree Days  
Heating Degree Days 54    
Moisture  
Dew Point 8 °F    
Average Humidity 76    
Maximum Humidity 88    
Minimum Humidity 63    
Precipitation  
Precipitation 0.00 in - - ()
Sea Level Pressure  
Sea Level Pressure 30.07 in    
Wind  
Wind Speed 5 mph ()    
Max Wind Speed 14 mph    
Max Gust Speed -    
Visibility 6.5 miles    
Events Snow    
Averages and records for this station are not official NWS values.
T = Trace of Precipitation, MM = Missing Value Source: Averaged Metar Reports

Daily Weather History Graph

Daily Weather History Graph

Search for Another Location

Airport or City:

Astronomy

Oct. 28, 2019 Rise Set
Actual Time 7:53 AM MDT 6:19 PM MDT
Civil Twilight 7:23 AM MDT 6:49 PM MDT
Nautical Twilight 6:50 AM MDT 7:22 PM MDT
Astronomical Twilight 6:16 AM MDT 7:55 PM MDT
Moon 8:18 AM MDT (10/28) 7:06 PM MDT (10/28)
Length of Visible Light 11h 25m
Length of Day
10h 26m
New Moon, 1% of the Moon is Illuminated
Oct 28
New Moon
Nov 4
First Quarter
Nov 12
Full
Nov 19
Last Quarter
Nov 26
New

Hourly Weather History & Observations

Time (MDT) Temp. Windchill Dew Point Humidity Pressure Visibility Wind Dir Wind Speed Gust Speed Precip Events Conditions
12:56 AM 7.0 °F -4.5 °F -0.9 °F 70% 30.34 in 10.0 mi NNE 6.9 mph - N/A   Clear
1:56 AM 6.1 °F -4.3 °F -0.0 °F 76% 30.34 in 10.0 mi ENE 5.8 mph - N/A   Clear
2:56 AM 3.0 °F -6.4 °F -2.0 °F 80% 30.32 in 10.0 mi NNE 4.6 mph - N/A   Clear
3:56 AM 1.9 °F - -4.0 °F 76% 30.31 in 10.0 mi Calm Calm - N/A   Clear
4:56 AM 1.0 °F -6.7 °F -4.0 °F 79% 30.30 in 10.0 mi NE 3.5 mph - N/A   Clear
5:56 AM 1.0 °F -12.9 °F -2.9 °F 83% 30.30 in 10.0 mi North 8.1 mph - N/A   Clear
6:56 AM 1.9 °F -7.6 °F -2.9 °F 80% 30.31 in 10.0 mi North 4.6 mph - N/A   Clear
7:56 AM 1.9 °F - -2.9 °F 80% 30.32 in 10.0 mi Calm Calm - N/A   Partly Cloudy
8:56 AM 6.1 °F - -0.0 °F 76% 30.31 in 10.0 mi Calm Calm - N/A   Partly Cloudy
9:56 AM 10.0 °F - 1.0 °F 67% 30.28 in 10.0 mi Calm Calm - N/A   Scattered Clouds
10:56 AM 12.0 °F 5.9 °F 3.0 °F 67% 30.27 in 5.0 mi SSW 3.5 mph - 0.00 in Snow Light Snow
11:36 AM 15.8 °F 6.1 °F 6.8 °F 68% 29.97 in 2.0 mi SSW 6.9 mph - 0.00 in Snow Light Snow
11:56 AM 15.1 °F 4.2 °F 7.0 °F 70% 30.22 in 2.0 mi SW 8.1 mph - 0.00 in Snow Light Snow
12:03 PM 15.8 °F 5.1 °F 8.6 °F 73% 29.95 in 1.8 mi SW 8.1 mph - 0.00 in Snow Light Snow
12:42 PM 17.6 °F 10.7 °F 10.4 °F 73% 29.93 in 2.5 mi SW 4.6 mph - 0.00 in Snow Light Snow
12:47 PM 17.6 °F 10.7 °F 10.4 °F 73% 29.93 in 3.0 mi WSW 4.6 mph - 0.00 in Snow Light Snow
12:56 PM 19.0 °F 12.3 °F 12.0 °F 74% 30.17 in 6.0 mi Variable 4.6 mph - 0.00 in Snow Light Snow
1:03 PM 19.4 °F 6.6 °F 12.2 °F 74% 29.92 in 7.0 mi South 12.7 mph - 0.00 in Snow Light Snow
1:56 PM 19.9 °F 6.7 °F 12.9 °F 74% 30.14 in 6.0 mi South 13.8 mph - 0.00 in Snow Light Snow
2:23 PM 21.2 °F 9.5 °F 12.2 °F 68% 29.88 in 2.0 mi SSW 11.5 mph - 0.00 in Snow Light Snow
2:35 PM 21.2 °F 10.1 °F 12.2 °F 68% 29.87 in 1.5 mi SSW 10.4 mph - 0.00 in Snow Light Snow
2:56 PM 19.9 °F 8.6 °F 12.9 °F 74% 30.14 in 5.0 mi SSW 10.4 mph - 0.00 in Snow Light Snow
3:56 PM 21.0 °F 11.4 °F 12.9 °F 71% 30.13 in 2.5 mi SSW 8.1 mph - 0.00 in Snow Light Snow
4:18 PM 21.2 °F 10.1 °F 12.2 °F 68% 29.86 in 5.0 mi SSW 10.4 mph - 0.00 in Snow Light Snow
4:32 PM 21.2 °F 10.1 °F 10.4 °F 63% 29.86 in 5.0 mi SSW 10.4 mph - 0.00 in Snow Light Snow
4:56 PM 21.0 °F 12.4 °F 12.0 °F 68% 30.13 in 5.0 mi SW 6.9 mph - 0.00 in Snow Light Snow
5:26 PM 19.4 °F 11.5 °F 12.2 °F 74% 29.86 in 9.0 mi South 5.8 mph - 0.00 in Snow Light Snow
5:40 PM 19.4 °F 8.6 °F 12.2 °F 74% 29.86 in 6.0 mi South 9.2 mph - 0.00 in Snow Light Snow
5:56 PM 19.9 °F 9.3 °F 12.9 °F 74% 30.12 in 6.0 mi South 9.2 mph - 0.00 in Snow Light Snow
6:07 PM 19.4 °F 9.5 °F 12.2 °F 74% 29.85 in 7.0 mi SSW 8.1 mph - 0.00 in Snow Light Snow
6:23 PM 19.4 °F 10.4 °F 14.0 °F 80% 29.85 in 4.0 mi South 6.9 mph - 0.00 in Snow Light Snow
6:34 PM 19.4 °F 10.4 °F 14.0 °F 80% 29.85 in 2.5 mi South 6.9 mph - 0.00 in Snow Light Snow
6:41 PM 19.4 °F 8.6 °F 14.0 °F 80% 29.85 in 3.0 mi South 9.2 mph - 0.00 in Snow Light Snow
6:56 PM 19.0 °F 9.0 °F 14.0 °F 81% 30.12 in 3.0 mi South 8.1 mph - 0.00 in Snow Light Snow
7:11 PM 17.6 °F 8.2 °F 14.0 °F 86% 29.85 in 6.0 mi South 6.9 mph - 0.00 in Snow Light Snow
7:51 PM 17.6 °F - 12.2 °F 79% 29.85 in 9.0 mi Calm Calm - 0.00 in Snow Light Snow
7:56 PM 18.0 °F - 12.9 °F 81% 30.13 in 9.0 mi Calm Calm - 0.00 in Snow Light Snow
8:28 PM 17.6 °F 12.3 °F 12.2 °F 79% 29.85 in 9.0 mi WSW 3.5 mph - 0.00 in Snow Light Snow
8:56 PM 16.0 °F 7.4 °F 10.9 °F 81% 30.12 in 9.0 mi SW 5.8 mph - 0.00 in Snow Light Snow
9:56 PM 16.0 °F 4.4 °F 12.9 °F 88% 30.10 in 9.0 mi West 9.2 mph - 0.00 in Snow Light Snow
10:56 PM 15.1 °F 9.4 °F 12.0 °F 88% 30.09 in 10.0 mi SW 3.5 mph - 0.00 in   Overcast
11:56 PM 16.0 °F - 12.0 °F 84% 30.05 in 10.0 mi Calm Calm - N/A   Overcast